1513198800.4,22470,5.94,72218.8,-14.05,-42.19,-41.99,0,*68
1513198801.67,22471,5.94,72224.3,-14.05,-42.25,-42.57,0,*67
1513198802.94,22472,5.94,72226.8,-14.05,-42.45,-42.75,0,*62
1513198804.19,22473,5.94,72224.3,-14.05,-42.63,-42.75,0,*67
1513198805.46,22474,5.94,72232.0,-14.05,-42.95,-43.01,0,*6B
1513198806.7,22475,5.94,72230.3,-14.05,-42.75,-43.01,0,*64
1513198808.0,22476,5.94,72234.8,-14.05,-42.45,-42.83,0,*6F
1513198809.26,22477,5.94,72230.8,-14.05,-42.75,-42.83,0,*6D
1513198810.54,22478,5.94,72224.0,-14.05,-42.75,-42.95,0,*65
1513198811.8,22479,5.94,72232.3,-14.05,-42.63,-42.45,0,*6E
1513198813.08,22480,5.94,72236.5,-14.05,-42.45,-42.75,0,*6F
1513198814.35,22481,5.94,72238.8,-14.05,-42.19,-42.25,0,*62
1513198815.64,22482,5.94,72238.3,-14.05,-42.57,-42.57,0,*6E
1513198816.92,22483,5.94,72236.5,-14.05,-42.45,-42.57,0,*6C
1513198818.19,22484,5.94,72224.8,-14.05,-42.57,-42.63,0,*6F
1513198819.46,22485,5.94,72232.3,-14.05,-42.25,-42.45,0,*6F
1513198820.73,22486,5.94,72230.8,-14.05,-42.57,-42.63,0,*6D
1513198821.98,22487,5.94,72238.0,-14.05,-42.25,-42.37,0,*68
1513198823.24,22488,5.94,72236.3,-14.05,-42.63,-42.83,0,*6A
1513198824.52,22489,5.94,72230.8,-14.05,-42.75,-42.95,0,*6B
1513198825.77,22490,5.94,72226.5,-14.05,-42.75,-42.75,0,*6D
1513198827.01,22491,5.94,72222.0,-14.05,-42.63,-42.75,0,*6B
1513198828.3,22492,5.94,72228.5,-14.05,-42.57,-42.57,0,*6F
1513198829.57,22493,5.94,72238.0,-14.09,-42.69,-42.63,0,*68
1513198830.84,22494,5.94,72226.5,-14.05,-42.63,-42.83,0,*67
1513198832.1,22495,5.94,72234.0,-14.05,-42.63,-42.57,0,*6F
1513198833.37,22496,5.94,72234.8,-14.05,-42.37,-42.45,0,*6E
1513198834.63,22497,5.94,72234.5,-14.05,-41.99,-42.19,0,*61
1513198835.93,22498,5.94,72232.0,-14.05,-42.45,-42.45,0,*65
1513198837.21,22499,5.94,72228.8,-14.05,-42.45,-42.45,0,*64
1513198838.46,22500,5.94,72240.8,-14.05,-42.13,-41.99,0,*64
1513198839.7,22501,5.94,72232.3,-14.05,-42.37,-42.37,0,*64
1513198840.97,22502,5.94,72228.5,-14.05,-42.19,-41.61,0,*6B
1513198842.22,22503,5.94,72236.8,-14.05,-42.13,-42.13,0,*66
1513198843.49,22504,5.94,72230.5,-14.05,-42.19,-42.37,0,*6D
1513198844.73,22505,5.94,72232.8,-14.05,-42.13,-42.13,0,*60
1513198846.0,22506,5.94,72230.8,-14.05,-41.81,-42.13,0,*6B
1513198847.24,22507,5.94,72220.0,-14.05,-41.99,-42.25,0,*66
1513198848.51,22508,5.94,72234.3,-14.05,-41.41,-41.23,0,*69
1513198849.79,22509,5.94,72240.3,-14.05,-42.45,-42.63,0,*68
1513198851.05,22510,5.94,72236.5,-14.05,-42.57,-42.63,0,*63
1513198852.34,22511,5.94,72238.8,-14.05,-42.45,-42.57,0,*66
1513198853.62,22512,5.94,72232.3,-14.05,-42.45,-42.63,0,*62
1513198854.86,22513,5.94,72236.3,-14.05,-42.37,-42.37,0,*67
1513198856.14,22514,5.94,72234.8,-14.05,-42.57,-42.45,0,*63
1513198857.43,22515,5.94,72244.8,-14.05,-42.57,-42.83,0,*68
1513198858.68,22516,5.94,72238.8,-14.05,-42.75,-42.75,0,*62
1513198859.97,22517,5.94,72234.5,-14.05,-42.57,-42.57,0,*63
1513198861.23,22518,5.94,72228.5,-14.05,-42.63,-42.83,0,*62
1513198862.51,22519,5.94,72220.8,-14.05,-42.75,-42.95,0,*63
1513198863.78,22520,5.94,72210.3,-14.05,-42.75,-42.95,0,*69
1513198865.07,22521,5.94,72230.0,-14.05,-42.45,-42.57,0,*65
1513198866.36,22522,5.94,72224.3,-14.05,-42.45,-42.57,0,*66
1513198867.64,22523,5.94,72220.0,-14.05,-42.19,-42.25,0,*6B
1513198868.94,22524,5.94,72224.3,-14.05,-42.19,-42.19,0,*63
1513198870.21,22525,5.94,72222.0,-14.05,-42.19,-42.25,0,*6D
1513198871.48,22526,5.94,72220.3,-14.05,-41.93,-41.99,0,*6B
1513198872.77,22527,5.94,72232.0,-14.05,-41.81,-41.93,0,*63
1513198874.01,22528,5.94,72214.5,-14.05,-41.73,-41.99,0,*6B
1513198875.27,22529,5.94,72204.8,-14.05,-41.93,-42.13,0,*65
1513198876.56,22530,5.94,72214.3,-14.05,-41.81,-41.93,0,*65
1513198877.84,22531,5.94,72216.3,-14.05,-42.13,-42.19,0,*6D
1513198879.11,22532,5.94,72210.3,-14.05,-42.19,-42.25,0,*6B
1513198880.38,22533,5.94,72208.0,-14.05,-42.19,-42.25,0,*6A
1513198881.6,22534,5.94,72216.5,-14.03,-42.25,-42.25,0,*64
1513198882.84,22535,5.94,72202.8,-14.05,-42.25,-42.37,0,*60
1513198884.06,22536,5.94,72208.8,-14.03,-42.13,-42.37,0,*60
1513198885.27,22537,5.94,72222.3,-14.03,-42.13,-42.25,0,*62
1513198886.54,22538,5.94,72226.5,-14.03,-42.19,-42.19,0,*68
1513198887.81,22539,5.94,72218.3,-14.03,-42.19,-42.19,0,*69
1513198889.09,22540,5.94,72222.5,-14.01,-42.13,-42.19,0,*6F
1513198890.38,22541,5.94,72222.8,-14.01,-42.05,-42.19,0,*69
1513198891.61,22542,5.94,72220.5,-14.03,-42.37,-42.45,0,*60
1513198892.86,22543,5.94,72226.5,-14.03,-42.13,-42.19,0,*6E
1513198894.13,22544,5.94,72222.3,-14.01,-42.13,-42.05,0,*66
1513198895.4,22545,5.94,72232.0,-14.01,-42.13,-42.19,0,*6A
1513198896.7,22546,5.94,72230.5,-14.01,-42.19,-42.31,0,*69
1513198897.94,22547,5.94,72238.3,-14.01,-42.13,-42.13,0,*62
1513198899.21,22548,5.94,72238.3,-14.01,-42.19,-42.37,0,*61
1513198900.45,22549,5.94,72238.8,-14.03,-42.57,-42.63,0,*69
1513198901.75,22550,5.94,72230.3,-14.01,-42.31,-42.19,0,*6E
1513198902.96,22551,5.94,72242.5,-14.03,-42.37,-42.37,0,*67
1513198904.23,22552,5.94,72240.5,-14.01,-42.13,-42.19,0,*6C
1513198905.53,22553,5.94,72234.5,-14.01,-42.19,-42.31,0,*6D
1513198906.84,22554,5.94,72234.0,-14.01,-42.19,-42.31,0,*6A
1513198908.1,22555,5.94,72236.3,-14.01,-41.87,-42.05,0,*68
1513198909.38,22556,5.94,72242.3,-14.01,-42.13,-42.19,0,*68
1513198910.68,22557,5.94,72238.5,-14.01,-42.31,-42.31,0,*63
1513198911.94,22558,5.94,72230.8,-13.99,-42.05,-42.19,0,*67
1513198913.21,22559,5.94,72232.0,-14.01,-42.19,-42.37,0,*61
1513198914.48,22560,5.94,72218.8,-14.01,-42.51,-42.57,0,*61
1513198915.72,22561,5.94,72218.0,-13.99,-42.31,-42.37,0,*66
1513198916.94,22562,5.94,72214.5,-13.99,-42.37,-42.37,0,*63
1513198918.18,22563,5.94,72226.0,-13.99,-42.37,-42.57,0,*64
1513198919.42,22564,5.94,72224.0,-13.99,-42.31,-42.37,0,*63
1513198920.69,22565,5.94,72222.0,-14.01,-42.31,-42.37,0,*64
1513198921.96,22566,5.94,72224.0,-14.01,-42.19,-42.37,0,*6D
1513198923.17,22567,5.94,72226.8,-13.99,-42.51,-42.37,0,*66
1513198924.42,22568,5.94,72238.0,-13.99,-42.19,-42.37,0,*65
1513198925.64,22569,5.94,72244.0,-13.99,-42.13,-42.37,0,*6E
1513198926.89,22570,5.94,72242.3,-13.99,-42.19,-42.37,0,*6C
1513198928.15,22571,5.94,72240.8,-14.01,-42.37,-42.57,0,*61
1513198929.42,22572,5.94,72244.0,-14.01,-42.31,-42.51,0,*62
1513198930.69,22573,5.94,72234.3,-14.01,-42.51,-42.69,0,*6E
1513198931.99,22574,5.94,72232.5,-14.01,-42.19,-42.31,0,*68
1513198933.24,22575,5.94,72224.3,-13.99,-42.19,-42.37,0,*69
1513198934.48,22576,5.94,72242.3,-13.99,-42.13,-42.19,0,*6C
1513198935.76,22577,5.94,72248.3,-14.01,-42.31,-42.51,0,*67
1513198937.01,22578,5.94,72248.8,-13.99,-42.19,-42.51,0,*64
1513198938.28,22579,5.94,72246.8,-14.01,-42.19,-42.37,0,*63
1513198939.55,22580,5.94,72244.5,-14.01,-42.57,-42.75,0,*69
1513198940.81,22581,5.94,72224.8,-14.01,-42.31,-42.37,0,*6E
1513198942.1,22582,5.94,72212.8,-14.01,-41.93,-42.05,0,*67
1513198943.39,22583,5.94,72214.5,-14.01,-42.05,-42.19,0,*67
1513198944.61,22584,5.94,72226.0,-13.99,-41.99,-42.13,0,*6A
1513198945.88,22585,5.94,72228.3,-13.99,-42.05,-42.31,0,*6D
1513198947.13,22586,5.94,72242.3,-13.99,-42.19,-42.37,0,*65
1513198948.38,22587,5.94,72236.8,-13.99,-42.13,-42.31,0,*68
1513198949.63,22588,5.94,72244.3,-13.99,-42.19,-42.37,0,*6B
1513198950.87,22589,5.94,72244.0,-13.99,-42.19,-42.37,0,*6A
1513198952.14,22590,5.94,72242.3,-13.95,-42.25,-42.45,0,*64
1513198953.43,22591,5.94,72244.8,-13.95,-42.31,-42.45,0,*60
1513198954.67,22592,5.94,72242.8,-13.99,-42.37,-42.57,0,*6A
1513198955.95,22593,5.94,72234.0,-13.95,-42.31,-42.63,0,*66
1513198957.18,22594,5.94,72236.5,-13.99,-42.57,-42.89,0,*69
1513198958.43,22595,5.94,72232.5,-13.99,-42.37,-42.69,0,*60
1513198959.68,22596,5.94,72236.8,-13.99,-42.19,-42.51,0,*64
1513198960.9,22597,5.94,72240.0,-13.99,-42.37,-42.51,0,*69
1513198962.17,22598,5.94,72232.3,-13.99,-42.31,-42.57,0,*66
1513198963.46,22599,5.94,72232.5,-14.01,-42.31,-42.69,0,*6C
1513198964.75,22600,5.94,72240.8,-13.95,-42.31,-42.45,0,*6B
1513198965.97,22601,5.94,72240.5,-13.99,-42.13,-42.37,0,*63
1513198967.25,22602,5.94,72244.3,-13.95,-42.13,-42.31,0,*6A
1513198968.5,22603,5.94,72228.0,-13.99,-42.13,-42.31,0,*67
1513198969.77,22604,5.94,72238.3,-13.95,-41.87,-42.05,0,*65
1513198971.01,22605,5.94,72240.5,-13.99,-42.19,-42.37,0,*6D
1513198972.26,22606,5.94,72244.0,-13.95,-42.13,-42.25,0,*6B
1513198973.53,22607,5.94,72242.5,-13.95,-42.25,-42.45,0,*69
1513198974.77,22608,5.94,72236.5,-13.99,-42.19,-42.37,0,*60
1513198976.07,22609,5.94,72238.0,-13.95,-42.05,-42.31,0,*66
1513198977.36,22610,5.94,72242.5,-13.95,-42.05,-42.31,0,*6E
1513198978.63,22611,5.94,72246.5,-13.95,-42.05,-42.25,0,*6A
1513198979.9,22612,5.94,72244.0,-13.95,-42.13,-42.45,0,*68
1513198981.17,22613,5.94,72242.5,-13.95,-42.13,-42.45,0,*69
1513198982.43,22614,5.94,72238.5,-13.95,-42.25,-42.45,0,*6B
1513198983.7,22615,5.94,72242.0,-13.95,-42.31,-42.51,0,*6A
1513198984.98,22616,5.94,72238.3,-13.95,-42.31,-42.63,0,*68
1513198986.26,22617,5.94,72236.5,-13.95,-42.25,-42.31,0,*6B
1513198987.52,22618,5.94,72236.0,-13.95,-42.25,-42.45,0,*67
1513198988.82,22619,5.94,72240.5,-13.95,-42.31,-42.45,0,*63
1513198990.08,22620,5.94,72234.8,-13.95,-42.25,-42.45,0,*6C
1513198991.35,22621,5.94,72236.8,-13.99,-42.31,-42.57,0,*67
1513198992.64,22622,5.94,72232.5,-13.95,-42.45,-42.69,0,*66
1513198993.89,22623,5.94,72238.3,-13.95,-42.25,-42.63,0,*6B
1513198995.17,22624,5.94,72240.8,-13.95,-42.31,-42.63,0,*69
1513198996.42,22625,5.94,72246.3,-13.95,-42.51,-42.63,0,*6E
1513198997.66,22626,5.94,72242.8,-13.99,-42.51,-42.69,0,*6B
1513198998.93,22627,5.94,72238.3,-13.95,-42.51,-42.83,0,*62
1513199000.2,22628,5.94,72236.5,-13.95,-42.51,-42.83,0,*6D
1513199001.43,22629,5.94,72236.3,-13.99,-42.57,-42.89,0,*6C
1513199002.73,22630,5.94,72236.5,-13.95,-42.45,-42.69,0,*65
1513199004.0,22631,5.94,72234.0,-13.95,-42.31,-42.63,0,*6D
1513199005.27,22632,5.94,72238.0,-13.99,-42.31,-42.57,0,*65
1513199006.54,22633,5.94,72238.8,-13.95,-42.31,-42.51,0,*6E
1513199007.78,22634,5.94,72240.0,-13.99,-42.51,-42.69,0,*68
1513199009.03,22635,5.94,72244.5,-13.99,-42.19,-42.51,0,*6E
1513199010.28,22636,5.94,72234.3,-13.95,-41.99,-42.25,0,*69
1513199011.55,22637,5.94,72220.0,-13.99,-42.31,-42.69,0,*6D
1513199012.79,22638,5.94,72230.3,-13.95,-41.87,-42.25,0,*68
1513199014.06,22639,5.94,72224.0,-13.95,-42.05,-42.25,0,*60
1513199015.32,22640,5.94,72228.5,-13.95,-41.61,-41.81,0,*62
1513199016.56,22641,5.94,72236.5,-13.95,-41.49,-41.99,0,*60
1513199017.86,22642,5.94,72224.5,-13.95,-41.81,-42.05,0,*61
1513199019.07,22643,5.94,72228.0,-13.93,-41.61,-41.99,0,*6E
1513199020.31,22644,5.94,72228.3,-13.93,-41.61,-41.93,0,*63
1513199021.55,22645,5.94,72228.0,-13.93,-41.81,-41.99,0,*66
1513199022.82,22646,5.94,72232.5,-13.93,-41.81,-42.05,0,*63
1513199024.06,22647,5.94,72224.3,-13.91,-41.61,-41.99,0,*68
1513199025.28,22648,5.94,72226.0,-13.93,-41.73,-41.99,0,*66
1513199026.54,22649,5.94,72228.3,-13.93,-41.81,-42.05,0,*6C
1513199027.79,22650,5.94,72220.3,-13.93,-41.81,-41.99,0,*62
1513199029.05,22651,5.94,72228.0,-13.91,-41.93,-42.25,0,*66
1513199030.3,22652,5.94,72232.0,-13.91,-41.99,-42.25,0,*6F
1513199031.57,22653,5.94,72230.5,-13.91,-41.93,-42.25,0,*64
1513199032.84,22654,5.94,72230.5,-13.89,-42.19,-42.45,0,*6D
1513199034.14,22655,5.94,72232.3,-13.87,-41.93,-42.19,0,*6A
1513199035.35,22656,5.94,72230.8,-13.89,-41.99,-42.37,0,*61
1513199036.61,22657,5.94,72230.0,-13.89,-42.19,-42.37,0,*6B
1513199037.85,22658,5.94,72220.8,-13.89,-42.19,-42.37,0,*64
1513199039.08,22659,5.94,72240.0,-13.89,-42.37,-42.75,0,*6F
1513199040.35,22660,5.94,72234.8,-13.89,-42.05,-42.45,0,*67
1513199041.6,22661,5.94,72236.0,-13.89,-42.25,-42.57,0,*67
1513199042.87,22662,5.94,72236.0,-13.89,-42.19,-42.45,0,*68
1513199044.12,22663,5.94,72232.5,-13.89,-42.25,-42.57,0,*65
1513199045.36,22664,5.94,72224.3,-13.89,-42.05,-42.37,0,*66
1513199046.64,22665,5.94,72230.3,-13.89,-42.19,-42.45,0,*6F
1513199047.91,22666,5.94,72232.5,-13.87,-42.13,-42.31,0,*6B
1513199049.13,22667,5.94,72230.3,-13.89,-41.99,-42.37,0,*63
1513199050.4,22668,5.94,72234.8,-13.87,-41.99,-42.19,0,*6E
1513199051.68,22669,5.94,72226.5,-13.89,-41.93,-42.19,0,*6B
1513199052.95,22670,5.94,72220.3,-13.89,-42.05,-42.19,0,*6F
1513199054.21,22671,5.94,72242.3,-13.87,-41.73,-41.93,0,*63
1513199055.45,22672,5.94,72238.3,-13.87,-41.87,-42.13,0,*60
1513199056.7,22673,5.94,72238.5,-13.87,-41.87,-41.99,0,*60
1513199057.94,22674,5.94,72230.3,-13.87,-41.87,-41.99,0,*67
1513199059.19,22675,5.94,72228.8,-13.87,-41.87,-41.99,0,*66
1513199060.43,22676,5.94,72246.0,-13.87,-41.49,-41.73,0,*63
1513199061.67,22677,5.94,72240.5,-13.83,-41.61,-41.87,0,*67
1513199062.92,22678,5.94,72234.8,-13.85,-41.55,-41.73,0,*62
1513199064.16,22679,5.94,72232.0,-13.83,-41.87,-42.13,0,*6F
1513199065.38,22680,5.94,72230.8,-13.85,-41.99,-41.99,0,*61
1513199066.64,22681,5.94,72232.0,-13.83,-42.05,-41.61,0,*67
1513199067.92,22682,5.94,72242.0,-13.83,-40.47,-40.41,0,*63
1513199069.16,22683,5.94,72242.0,-13.83,-41.03,-40.73,0,*62
1513199070.4,22684,5.94,72258.0,-13.83,-40.47,-40.47,0,*63
1513199071.64,22685,5.94,72248.8,-13.83,-41.29,-41.87,0,*66
1513199072.91,22686,5.94,72236.0,-13.83,-41.93,-42.13,0,*6A
1513199074.13,22687,5.94,72242.5,-13.85,-41.99,-41.99,0,*66
1513199075.41,22688,5.94,72244.5,-13.83,-41.93,-41.93,0,*6F
1513199076.69,22689,5.94,72236.3,-13.83,-42.25,-42.31,0,*6B
1513199077.96,22690,5.94,72232.8,-13.83,-41.67,-41.41,0,*62
1513199079.25,22691,5.94,72232.5,-13.83,-41.81,-42.05,0,*68
1513199080.5,22692,5.94,72220.3,-13.85,-41.87,-41.93,0,*67
1513199081.79,22693,5.94,72216.0,-13.83,-41.81,-41.93,0,*66
1513199083.03,22694,5.94,72218.0,-13.81,-41.87,-41.81,0,*66
1513199084.3,22695,5.94,72220.5,-13.81,-41.67,-41.81,0,*69
1513199085.56,22696,5.94,72214.5,-13.81,-42.05,-42.05,0,*62
1513199086.83,22697,5.94,72228.8,-13.81,-41.93,-42.05,0,*6F
1513199088.09,22698,5.94,72226.8,-13.79,-41.73,-41.81,0,*66
1513199089.36,22699,5.94,72214.8,-13.79,-41.81,-41.61,0,*64
1513199090.6,22700,5.94,72216.3,-13.79,-41.61,-41.61,0,*6B
1513199091.87,22701,5.94,72218.8,-13.79,-41.81,-41.87,0,*6C
1513199093.09,22702,5.94,72226.0,-13.77,-41.73,-41.87,0,*6C
1513199094.33,22703,5.94,72224.0,-13.79,-41.61,-41.61,0,*68
1513199095.55,22704,5.94,72212.0,-13.77,-41.73,-41.73,0,*61
1513199096.84,22705,5.94,72210.3,-13.75,-41.55,-41.55,0,*62
1513199098.08,22706,5.94,72216.0,-13.77,-41.73,-41.55,0,*67
1513199099.33,22707,5.94,72226.0,-13.77,-41.81,-41.99,0,*6B
1513199100.61,22708,5.94,72224.0,-13.75,-41.81,-41.81,0,*6F
1513199101.9,22709,5.94,72218.5,-13.75,-41.67,-41.81,0,*66
1513199103.12,22710,5.94,72218.8,-13.77,-41.73,-41.87,0,*6F
1513199104.39,22711,5.94,72230.0,-13.75,-41.55,-41.49,0,*6A
1513199105.68,22712,5.94,72240.5,-13.75,-41.35,-41.35,0,*64
1513199106.95,22713,5.94,72242.0,-13.77,-41.55,-41.55,0,*67
1513199108.24,22714,5.94,72242.3,-13.71,-40.97,-40.97,0,*66
1513199109.52,22715,5.94,72238.3,-13.71,-40.29,-39.41,0,*67
1513199110.82,22716,5.94,72240.8,-13.75,-41.67,-41.67,0,*60
1513199112.09,22717,5.94,72240.3,-13.75,-41.67,-41.73,0,*64
1513199113.37,22718,5.94,72240.3,-13.75,-41.81,-41.93,0,*6D
1513199114.64,22719,5.94,72236.0,-13.75,-40.91,-40.79,0,*69
1513199115.9,22720,5.94,72244.5,-13.75,-40.79,-40.47,0,*68
1513199117.13,22721,5.94,72238.0,-13.71,-41.49,-41.17,0,*6B
1513199118.36,22722,5.94,72236.8,-13.71,-40.47,-40.35,0,*66
1513199119.66,22723,5.94,72232.5,-13.71,-41.35,-41.55,0,*64
1513199120.94,22724,5.94,72234.5,-13.71,-41.55,-41.55,0,*65
1513199122.21,22725,5.94,72248.8,-13.71,-41.49,-41.67,0,*68
1513199123.44,22726,5.94,72240.0,-13.69,-41.73,-41.93,0,*60
1513199124.71,22727,5.94,72236.5,-13.71,-42.13,-42.19,0,*6C
1513199125.97,22728,5.94,72232.5,-13.69,-42.05,-42.05,0,*60
1513199127.25,22729,5.94,72236.3,-13.71,-41.93,-41.81,0,*6B
1513199128.47,22730,5.94,72244.5,-13.69,-40.91,-40.91,0,*69
1513199129.72,22731,5.94,72232.0,-13.69,-41.67,-41.73,0,*6D
1513199130.92,22732,5.94,72246.0,-13.69,-40.73,-40.47,0,*6C
1513199132.18,22733,5.94,72242.8,-13.71,-40.97,-41.29,0,*67
1513199133.46,22734,5.94,72256.5,-13.71,-40.29,-40.29,0,*64
1513199134.74,22735,5.94,72234.0,-13.71,-41.55,-41.93,0,*6F
1513199135.98,22736,5.94,72228.8,-13.69,-41.93,-42.13,0,*64
1513199137.22,22737,5.94,72222.8,-13.69,-42.13,-42.45,0,*6D
1513199138.45,22738,5.94,72224.3,-13.69,-42.13,-42.45,0,*62
1513199139.69,22739,5.94,72228.3,-13.69,-42.13,-42.45,0,*63
1513199140.91,22740,5.94,72238.5,-13.69,-42.25,-42.51,0,*6D
1513199142.13,22741,5.94,72236.5,-13.69,-42.25,-42.51,0,*6C
1513199143.37,22742,5.94,72236.8,-13.69,-42.45,-42.63,0,*68
1513199144.63,22743,5.94,72238.5,-13.71,-42.69,-42.89,0,*6A
1513199145.89,22744,5.94,72232.3,-13.71,-42.57,-42.75,0,*63
1513199147.15,22745,5.94,72238.8,-13.71,-42.51,-42.69,0,*69
1513199148.44,22746,5.94,72248.8,-13.71,-42.31,-42.31,0,*61
1513199149.71,22747,5.94,72240.0,-13.71,-42.31,-42.51,0,*66
1513199150.94,22748,5.94,72238.5,-13.69,-41.87,-41.93,0,*63
1513199152.19,22749,5.94,72244.3,-13.69,-42.13,-42.31,0,*67
1513199153.45,22750,5.94,72232.8,-13.71,-42.31,-42.51,0,*60
1513199154.72,22751,5.94,72248.0,-13.71,-42.19,-42.13,0,*6D
1513199155.98,22752,5.94,72240.5,-13.71,-42.19,-42.37,0,*68
1513199157.24,22753,5.94,72238.0,-13.71,-42.31,-42.37,0,*63
1513199158.47,22754,5.94,72234.8,-13.71,-42.37,-42.37,0,*62
1513199159.76,22755,5.94,72232.5,-13.71,-42.19,-42.57,0,*69
1513199161.03,22756,5.94,72232.8,-13.69,-42.31,-42.31,0,*69
1513199162.29,22757,5.94,72240.8,-13.71,-41.93,-41.99,0,*6B
1513199163.59,22758,5.94,72228.3,-13.71,-42.19,-42.19,0,*6E
1513199164.88,22759,5.94,72220.0,-13.71,-42.19,-42.19,0,*6F
1513199166.11,22760,5.94,72224.8,-13.71,-41.99,-42.13,0,*64
1513199167.41,22761,5.94,72226.5,-13.71,-42.19,-42.31,0,*6E
1513199168.7,22762,5.94,72230.8,-13.71,-42.19,-42.31,0,*6D
1513199170.0,22763,5.94,72224.8,-13.71,-42.19,-42.31,0,*6C
1513199171.24,22764,5.94,72234.8,-13.69,-41.93,-41.87,0,*6D
1513199172.47,22765,5.94,72222.5,-13.71,-41.73,-41.73,0,*60
1513199173.76,22766,5.94,72236.0,-13.71,-41.81,-41.93,0,*60
1513199175.0,22767,5.94,72230.8,-13.69,-41.93,-41.87,0,*6E
1513199176.25,22768,5.94,72232.8,-13.69,-42.05,-41.93,0,*68
1513199177.49,22769,5.94,72236.3,-13.69,-41.87,-41.93,0,*60
1513199178.74,22770,5.94,72228.0,-13.69,-42.05,-42.05,0,*6D
1513199179.99,22771,5.94,72236.5,-13.69,-41.67,-41.73,0,*69
1513199181.2,22772,5.94,72234.8,-13.69,-41.73,-41.87,0,*64
1513199182.41,22773,5.94,72234.8,-13.69,-42.13,-42.13,0,*6E
1513199183.63,22774,5.94,72230.8,-13.69,-42.63,-42.63,0,*69
1513199184.89,22775,5.94,72218.3,-13.67,-42.51,-42.69,0,*6D
1513199186.18,22776,5.94,72222.3,-13.71,-42.69,-42.69,0,*62
1513199187.42,22777,5.94,72224.3,-13.69,-42.45,-42.51,0,*6F
1513199188.66,22778,5.94,72222.8,-13.69,-42.25,-42.45,0,*63
1513199189.95,22779,5.94,72222.5,-13.71,-42.31,-42.31,0,*6D
1513199191.21,22780,5.94,72220.5,-13.69,-42.31,-42.45,0,*61
1513199192.43,22781,5.94,72222.0,-13.69,-42.13,-42.25,0,*66
1513199193.68,22782,5.94,72212.5,-13.69,-42.05,-42.05,0,*60
1513199194.9,22783,5.94,72226.0,-13.69,-41.87,-41.87,0,*61
1513199196.16,22784,5.94,72226.5,-13.69,-41.93,-41.93,0,*66
1513199197.4,22785,5.94,72208.0,-13.69,-41.93,-42.13,0,*6C
1513199198.69,22786,5.94,72210.5,-13.71,-41.55,-40.97,0,*62
1513199199.92,22787,5.94,72218.8,-13.71,-41.99,-42.13,0,*6D
1513199201.16,22788,5.94,72212.3,-13.69,-41.73,-42.05,0,*68
1513199202.41,22789,5.94,72228.5,-13.69,-42.05,-42.05,0,*6B
1513199203.66,22790,5.94,72222.3,-13.69,-42.13,-42.31,0,*63
1513199204.9,22791,5.94,72224.0,-13.69,-41.93,-42.13,0,*69
1513199206.13,22792,5.94,72224.5,-13.69,-42.05,-42.25,0,*63
1513199207.42,22793,5.94,72222.0,-13.67,-42.31,-42.45,0,*6D
1513199208.68,22794,5.94,72226.0,-13.67,-42.25,-42.45,0,*6F
1513199209.96,22795,5.94,72226.3,-13.67,-42.31,-42.63,0,*6F
1513199211.18,22796,5.94,72220.8,-13.69,-42.25,-42.63,0,*67
1513199212.39,22797,5.94,72230.8,-13.69,-42.25,-42.51,0,*67
1513199213.66,22798,5.94,72224.8,-13.69,-42.31,-42.45,0,*68
1513199214.9,22799,5.94,72220.8,-13.71,-42.37,-42.75,0,*65
1513199216.14,22800,5.94,72216.3,-13.71,-42.51,-42.75,0,*6A
1513199217.38,22801,5.94,72214.0,-13.69,-42.31,-42.63,0,*63
1513199218.6,22802,5.94,72200.0,-13.69,-42.25,-42.63,0,*65
1513199219.82,22803,5.94,72202.5,-13.69,-42.25,-42.51,0,*65
1513199221.08,22804,5.94,72204.0,-13.71,-42.37,-42.69,0,*63
1513199222.3,22805,5.94,72208.8,-13.69,-42.25,-42.51,0,*63
1513199223.54,22806,5.94,72200.0,-13.69,-42.51,-42.69,0,*68
1513199224.77,22807,5.94,72212.5,-13.71,-42.13,-42.37,0,*6D
1513199226.03,22808,5.94,72208.0,-13.69,-42.31,-42.45,0,*6E
1513199227.3,22809,5.94,72192.0,-13.71,-42.31,-42.37,0,*63
1513199228.53,22810,5.94,72214.0,-13.71,-41.73,-41.73,0,*6D
1513199229.76,22811,5.94,72214.8,-13.71,-41.99,-41.99,0,*6C
1513199231.0,22812,5.94,72212.8,-13.69,-41.93,-42.13,0,*6D
1513199232.29,22813,5.94,72220.5,-13.71,-41.55,-41.55,0,*6E
1513199233.53,22814,5.94,72228.8,-13.69,-41.03,-41.23,0,*62
1513199234.77,22815,5.94,72236.8,-13.71,-41.73,-42.13,0,*6D
1513199236.03,22816,5.94,72234.0,-13.71,-42.13,-42.31,0,*6B
1513199237.27,22817,5.94,72220.8,-13.69,-42.05,-42.25,0,*61
1513199238.49,22818,5.94,72222.8,-13.69,-41.49,-41.11,0,*61
1513199239.75,22819,5.94,72224.0,-13.71,-42.13,-42.19,0,*6E
1513199241.02,22820,5.94,72216.8,-13.71,-42.13,-42.31,0,*6E
1513199242.28,22821,5.94,72206.8,-13.71,-42.19,-42.37,0,*63
1513199243.52,22822,5.94,72208.3,-13.69,-42.05,-42.25,0,*67
1513199244.75,22823,5.94,72216.0,-13.71,-42.13,-42.13,0,*6D
1513199245.99,22824,5.94,72216.5,-13.69,-41.81,-41.73,0,*6E
1513199247.25,22825,5.94,72212.3,-13.71,-41.73,-41.93,0,*65
1513199248.46,22826,5.94,72212.5,-13.69,-41.73,-41.87,0,*6A
1513199249.69,22827,5.94,72214.0,-13.71,-41.73,-42.13,0,*6C
1513199250.93,22828,5.94,72222.5,-13.71,-41.99,-42.13,0,*67
1513199252.14,22829,5.94,72212.5,-13.69,-41.87,-41.61,0,*66
1513199253.42,22830,5.94,72234.0,-13.71,-39.53,-39.97,0,*67
1513199254.64,22831,5.94,72238.0,-13.69,-41.73,-42.51,0,*64
1513199255.85,22832,5.94,72226.3,-13.69,-42.13,-42.25,0,*61
1513199257.12,22833,5.94,72222.0,-13.71,-42.13,-42.31,0,*6C
1513199258.36,22834,5.94,72220.0,-13.69,-42.19,-42.25,0,*6D
1513199259.58,22835,5.94,72222.5,-13.69,-41.73,-41.87,0,*68
1513199260.78,22836,5.94,72204.0,-13.69,-40.73,-40.65,0,*67
1513199262.0,22837,5.94,72218.5,-13.69,-41.73,-41.87,0,*6A
1513199263.23,22838,5.94,72220.8,-13.69,-41.87,-41.93,0,*6B
1513199264.46,22839,5.94,72210.5,-13.69,-41.73,-41.93,0,*61
1513199265.68,22840,5.94,72216.0,-13.69,-41.73,-41.87,0,*6A
1513199266.91,22841,5.94,72208.3,-13.69,-41.87,-41.93,0,*65
1513199268.18,22842,5.94,72228.8,-13.67,-41.61,-41.67,0,*6B
1513199269.46,22843,5.94,72230.0,-13.65,-41.67,-41.67,0,*6E
1513199270.7,22844,5.94,72234.5,-13.67,-41.87,-42.13,0,*65
1513199271.93,22845,5.94,72230.0,-13.65,-42.05,-42.37,0,*69
1513199273.18,22846,5.94,72220.5,-13.67,-42.25,-42.51,0,*6A
1513199274.47,22847,5.94,72228.0,-13.67,-42.05,-42.31,0,*6F
1513199275.74,22848,5.94,72228.8,-13.67,-42.31,-42.51,0,*61
1513199277.0,22849,5.94,72232.0,-13.67,-42.13,-42.45,0,*65
1513199278.25,22850,5.94,72232.5,-13.67,-42.13,-42.25,0,*6B
1513199279.48,22851,5.94,72228.8,-13.69,-42.25,-42.45,0,*67
1513199280.75,22852,5.94,72220.8,-13.67,-42.13,-42.31,0,*6C
1513199282.01,22853,5.94,72236.0,-13.67,-42.05,-42.13,0,*6A
1513199283.29,22854,5.94,72240.0,-13.67,-42.13,-42.31,0,*6A
1513199284.55,22855,5.94,72234.3,-13.67,-42.25,-42.45,0,*6D
1513199285.81,22856,5.94,72228.5,-13.67,-42.05,-42.25,0,*6A
1513199287.08,22857,5.94,72238.0,-13.67,-41.67,-41.87,0,*67
1513199288.32,22858,5.94,72222.8,-13.67,-41.73,-41.73,0,*66
1513199289.59,22859,5.94,72230.3,-13.65,-41.23,-41.55,0,*64
1513199290.83,22860,5.94,72226.5,-13.65,-42.05,-41.99,0,*69
1513199292.07,22861,5.94,72238.8,-13.65,-41.61,-41.81,0,*60
1513199293.31,22862,5.94,72232.8,-13.65,-41.81,-41.99,0,*64
1513199294.58,22863,5.94,72228.0,-13.65,-41.55,-41.81,0,*65
1513199295.82,22864,5.94,72234.3,-13.65,-41.81,-41.87,0,*6D
1513199297.07,22865,5.94,72236.3,-13.65,-40.97,-41.03,0,*66
1513199298.31,22866,5.94,72226.8,-13.65,-41.61,-41.67,0,*6F
1513199299.56,22867,5.94,72226.8,-13.65,-41.35,-41.41,0,*6B
1513199300.83,22868,5.94,72230.0,-13.63,-41.55,-41.55,0,*61
1513199302.08,22869,5.94,72224.5,-13.63,-41.17,-41.35,0,*60